Time,TemperatureF,DewpointF,PressureIn,WindDirection,WindDirectionDegrees,WindSpeedMPH,WindSpeedGustMPH,Humidity,HourlyPrecipIn,Conditions,Clouds,dailyrainin,SoftwareType,DateUTC
2013-08-04 00:05:00,83.4,69.9,29.98,ESE,113,3.9,5.0,64,0.00,,,-99.99,,2013-08-04 05:05:00,
2013-08-04 00:11:00,83.2,70.2,29.99,SE,135,2.4,4.5,65,0.00,,,-99.99,,2013-08-04 05:11:00,
2013-08-04 00:17:00,83.0,70.1,29.98,ESE,113,3.9,4.5,65,0.00,,,-99.99,,2013-08-04 05:17:00,
2013-08-04 00:23:00,82.9,70.4,29.98,ESE,113,3.9,5.3,66,0.00,,,-99.99,,2013-08-04 05:23:00,
2013-08-04 00:29:00,82.8,70.3,29.98,ESE,113,3.0,4.8,66,0.00,,,-99.99,,2013-08-04 05:29:00,
2013-08-04 00:35:00,82.7,70.1,29.99,ESE,113,3.0,4.5,66,0.00,,,-99.99,,2013-08-04 05:35:00,
2013-08-04 00:41:00,82.5,70.0,29.99,SE,135,2.4,3.9,66,0.00,,,-99.99,,2013-08-04 05:41:00,
2013-08-04 00:47:00,82.4,70.3,29.99,SE,135,1.6,3.8,67,0.00,,,-99.99,,2013-08-04 05:47:00,
2013-08-04 00:53:00,82.3,69.8,29.99,SE,135,1.6,4.0,66,0.00,,,-99.99,,2013-08-04 05:53:00,
2013-08-04 00:59:00,82.2,70.1,29.99,SE,135,2.4,3.3,67,0.00,,,-99.99,,2013-08-04 05:59:00,
2013-08-04 01:06:00,82.0,70.4,29.98,SE,135,0.9,2.5,68,0.00,,,-99.99,,2013-08-04 06:06:00,
2013-08-04 01:12:00,81.9,70.3,29.98,SE,135,1.5,2.1,68,0.00,,,-99.99,,2013-08-04 06:12:00,
2013-08-04 01:17:00,81.7,70.1,29.98,SE,135,3.1,5.5,68,0.00,,,-99.99,,2013-08-04 06:17:00,
2013-08-04 01:23:00,81.6,69.5,29.98,SE,135,3.4,5.5,67,0.00,,,-99.99,,2013-08-04 06:23:00,
2013-08-04 01:29:00,81.6,69.6,29.98,ESE,113,3.7,6.5,67,0.00,,,-99.99,,2013-08-04 06:29:00,
2013-08-04 01:35:00,81.7,69.3,29.98,SE,135,4.7,6.0,66,0.00,,,-99.99,,2013-08-04 06:35:00,
2013-08-04 01:41:00,81.9,69.4,29.98,SE,135,4.9,8.4,66,0.00,,,-99.99,,2013-08-04 06:41:00,
2013-08-04 01:47:00,82.0,69.5,29.97,SSE,158,3.8,7.0,66,0.00,,,-99.99,,2013-08-04 06:47:00,
2013-08-04 01:53:00,82.0,69.0,29.97,SE,135,4.8,9.1,65,0.00,,,-99.99,,2013-08-04 06:53:00,
2013-08-04 01:59:00,82.0,69.0,29.97,ESE,113,6.9,9.1,65,0.00,,,-99.99,,2013-08-04 06:59:00,
2013-08-04 02:05:00,81.9,69.4,29.97,SE,135,6.6,8.4,66,0.00,,,-99.99,,2013-08-04 07:05:00,
2013-08-04 02:11:00,81.8,69.3,29.97,SSE,158,3.6,8.1,66,0.00,,,-99.99,,2013-08-04 07:11:00,
2013-08-04 02:17:00,81.7,69.2,29.97,SE,135,4.4,9.1,66,0.00,,,-99.99,,2013-08-04 07:17:00,
2013-08-04 02:23:00,81.5,69.1,29.97,SSE,158,6.2,11.4,66,0.00,,,-99.99,,2013-08-04 07:23:00,
2013-08-04 02:29:00,81.4,69.4,29.97,SE,135,5.5,10.1,67,0.00,,,-99.99,,2013-08-04 07:29:00,
2013-08-04 02:35:00,81.5,69.0,29.97,SE,135,4.8,9.6,66,0.00,,,-99.99,,2013-08-04 07:35:00,
2013-08-04 02:42:00,81.5,69.0,29.96,SE,135,5.3,8.8,66,0.00,,,-99.99,,2013-08-04 07:42:00,
2013-08-04 02:47:00,81.5,69.5,29.96,SE,135,9.3,9.7,67,0.00,,,-99.99,,2013-08-04 07:47:00,
2013-08-04 02:53:00,81.5,69.5,29.96,SE,135,3.1,7.2,67,0.00,,,-99.99,,2013-08-04 07:53:00,
2013-08-04 02:59:00,81.4,69.8,29.96,SSE,158,3.0,7.5,68,0.00,,,-99.99,,2013-08-04 07:59:00,
2013-08-04 03:05:00,81.3,69.7,29.96,SSE,158,4.5,7.1,68,0.00,,,-99.99,,2013-08-04 08:05:00,
2013-08-04 03:11:00,81.2,70.0,29.96,SE,135,3.0,7.0,69,0.00,,,-99.99,,2013-08-04 08:11:00,
2013-08-04 03:17:00,81.0,70.3,29.96,South,180,3.1,9.0,70,0.00,,,-99.99,,2013-08-04 08:17:00,
2013-08-04 03:23:00,80.9,70.2,29.96,SSW,203,4.2,9.1,70,0.00,,,-99.99,,2013-08-04 08:23:00,
2013-08-04 03:29:00,80.8,70.1,29.96,SSE,158,5.2,7.8,70,0.00,,,-99.99,,2013-08-04 08:29:00,
2013-08-04 03:35:00,80.7,70.4,29.96,SSE,158,2.8,7.9,71,0.00,,,-99.99,,2013-08-04 08:35:00,
2013-08-04 03:41:00,80.5,70.7,29.96,South,180,5.4,7.2,72,0.00,,,-99.99,,2013-08-04 08:41:00,
2013-08-04 03:47:00,80.4,70.5,29.96,SSE,158,1.9,7.3,72,0.00,,,-99.99,,2013-08-04 08:47:00,
2013-08-04 03:53:00,80.3,70.4,29.96,SSE,158,2.8,7.4,72,0.00,,,-99.99,,2013-08-04 08:53:00,
2013-08-04 03:59:00,80.1,70.7,29.96,SSE,158,3.3,6.3,73,0.00,,,-99.99,,2013-08-04 08:59:00,
2013-08-04 04:05:00,80.1,70.6,29.97,South,180,4.2,6.0,73,0.00,,,-99.99,,2013-08-04 09:05:00,
2013-08-04 04:11:00,80.0,71.0,29.97,South,180,2.9,6.5,74,0.00,,,-99.99,,2013-08-04 09:11:00,
2013-08-04 04:17:00,79.9,70.9,29.97,South,180,3.2,5.8,74,0.00,,,-99.99,,2013-08-04 09:17:00,
2013-08-04 04:23:00,79.8,71.2,29.97,South,180,3.2,7.5,75,0.00,,,-99.99,,2013-08-04 09:23:00,
2013-08-04 04:29:00,79.7,71.1,29.97,SSW,203,6.1,7.8,75,0.00,,,-99.99,,2013-08-04 09:29:00,
2013-08-04 04:35:00,79.7,71.1,29.97,South,180,3.7,6.9,75,0.00,,,-99.99,,2013-08-04 09:35:00,
2013-08-04 04:41:00,79.7,71.4,29.97,South,180,4.5,8.0,76,0.00,,,-99.99,,2013-08-04 09:41:00,
2013-08-04 04:47:00,79.6,71.4,29.98,SSE,158,3.3,5.0,76,0.00,,,-99.99,,2013-08-04 09:47:00,
2013-08-04 04:53:00,79.6,71.4,29.98,South,180,5.1,6.3,76,0.00,,,-99.99,,2013-08-04 09:53:00,
2013-08-04 04:59:00,79.6,71.3,29.98,South,180,2.4,7.8,76,0.00,,,-99.99,,2013-08-04 09:59:00,
2013-08-04 05:05:00,79.5,71.6,29.98,South,180,1.9,5.7,77,0.00,,,-99.99,,2013-08-04 10:05:00,
2013-08-04 05:11:00,79.4,71.6,29.98,South,180,2.9,6.3,77,0.00,,,-99.99,,2013-08-04 10:11:00,
2013-08-04 05:17:00,79.3,71.5,29.98,SSE,158,4.5,5.6,77,0.00,,,-99.99,,2013-08-04 10:17:00,
2013-08-04 05:23:00,79.2,71.7,29.98,SSE,158,3.1,4.8,78,0.00,,,-99.99,,2013-08-04 10:23:00,
2013-08-04 05:29:00,79.0,71.6,29.99,South,180,4.0,6.0,78,0.00,,,-99.99,,2013-08-04 10:29:00,
2013-08-04 05:35:00,78.9,71.8,29.99,South,180,3.4,5.1,79,0.00,,,-99.99,,2013-08-04 10:35:00,
2013-08-04 05:41:00,78.8,71.7,29.99,South,180,5.7,6.1,79,0.00,,,-99.99,,2013-08-04 10:41:00,
2013-08-04 05:47:00,78.7,72.0,29.99,South,180,2.4,4.6,80,0.00,,,-99.99,,2013-08-04 10:47:00,
2013-08-04 05:53:00,78.5,71.9,29.99,South,180,3.5,5.5,80,0.00,,,-99.99,,2013-08-04 10:53:00,
2013-08-04 05:59:00,78.4,71.7,30.00,South,180,3.4,5.3,80,0.00,,,-99.99,,2013-08-04 10:59:00,
2013-08-04 06:05:00,78.3,72.0,30.00,South,180,2.3,5.5,81,0.00,,,-99.99,,2013-08-04 11:05:00,
2013-08-04 06:11:00,78.3,71.9,30.00,South,180,1.6,4.4,81,0.00,,,-99.99,,2013-08-04 11:11:00,
2013-08-04 06:17:00,78.2,71.9,30.00,South,180,2.5,4.8,81,0.00,,,-99.99,,2013-08-04 11:17:00,
2013-08-04 06:23:00,78.2,71.8,30.00,South,180,4.0,4.2,81,0.00,,,-99.99,,2013-08-04 11:23:00,
2013-08-04 06:29:00,78.1,72.1,30.00,SSW,203,2.4,3.7,82,0.00,,,-99.99,,2013-08-04 11:29:00,
2013-08-04 06:35:00,78.0,71.7,30.01,South,180,1.1,3.6,81,0.00,,,-99.99,,2013-08-04 11:35:00,
2013-08-04 06:41:00,78.0,72.0,30.01,SSE,158,1.3,3.0,82,0.00,,,-99.99,,2013-08-04 11:41:00,
2013-08-04 06:47:00,78.0,72.0,30.02,SSE,158,3.0,3.7,82,0.00,,,-99.99,,2013-08-04 11:47:00,
2013-08-04 06:53:00,77.9,72.0,30.02,SSE,158,0.5,3.1,82,0.00,,,-99.99,,2013-08-04 11:53:00,
2013-08-04 06:59:00,78.0,71.7,30.02,SE,135,1.9,4.0,81,0.00,,,-99.99,,2013-08-04 11:59:00,
2013-08-04 07:05:00,78.1,72.2,30.02,South,180,1.5,5.7,82,0.00,,,-99.99,,2013-08-04 12:05:00,
2013-08-04 07:11:00,78.3,72.0,30.02,SSE,158,1.4,5.0,81,0.00,,,-99.99,,2013-08-04 12:11:00,
2013-08-04 07:17:00,78.6,71.9,30.02,South,180,3.6,3.8,80,0.00,,,-99.99,,2013-08-04 12:17:00,
2013-08-04 07:23:00,78.8,72.1,30.02,SSE,158,1.5,4.5,80,0.00,,,-99.99,,2013-08-04 12:23:00,
2013-08-04 07:29:00,79.1,72.4,30.02,SSE,158,2.4,4.2,80,0.00,,,-99.99,,2013-08-04 12:29:00,
2013-08-04 07:35:00,79.3,72.6,30.02,SSW,203,1.8,5.7,80,0.00,,,-99.99,,2013-08-04 12:35:00,
2013-08-04 07:41:00,79.5,72.0,30.02,South,180,3.6,5.8,78,0.00,,,-99.99,,2013-08-04 12:41:00,
2013-08-04 07:47:00,79.8,72.3,30.02,SSE,158,3.3,8.5,78,0.00,,,-99.99,,2013-08-04 12:47:00,
2013-08-04 07:53:00,80.2,72.3,30.02,SSE,158,1.5,6.0,77,0.00,,,-99.99,,2013-08-04 12:53:00,
2013-08-04 07:59:00,80.6,72.4,30.02,ESE,113,1.6,7.2,76,0.00,,,-99.99,,2013-08-04 12:59:00,
2013-08-04 08:05:00,81.0,72.8,30.02,SE,135,2.6,5.5,76,0.00,,,-99.99,,2013-08-04 13:05:00,
2013-08-04 08:11:00,81.4,72.7,30.02,South,180,2.4,7.9,75,0.00,,,-99.99,,2013-08-04 13:11:00,
2013-08-04 08:17:00,81.6,72.5,30.03,SSW,203,4.2,6.6,74,0.00,,,-99.99,,2013-08-04 13:17:00,
2013-08-04 08:23:00,81.9,72.8,30.03,South,180,8.3,8.7,74,0.00,,,-99.99,,2013-08-04 13:23:00,
2013-08-04 08:30:00,82.1,73.0,30.03,SSW,203,9.3,12.6,74,0.00,,,-99.99,,2013-08-04 13:30:00,
2013-08-04 08:36:00,82.3,73.2,30.03,SW,225,14.5,15.4,74,0.00,,,-99.99,,2013-08-04 13:36:00,
2013-08-04 08:42:00,82.3,72.8,30.03,South,180,6.8,9.2,73,0.00,,,-99.99,,2013-08-04 13:42:00,
2013-08-04 08:48:00,82.4,72.9,30.03,SSW,203,10.2,13.5,73,0.00,,,-99.99,,2013-08-04 13:48:00,
2013-08-04 08:53:00,82.7,72.7,30.03,SW,225,6.0,10.9,72,0.00,,,-99.99,,2013-08-04 13:53:00,
2013-08-04 09:00:00,83.1,72.7,30.04,South,180,4.8,12.0,71,0.00,,,-99.99,,2013-08-04 14:00:00,
2013-08-04 09:06:00,83.4,72.6,30.04,SSW,203,6.6,9.8,70,0.00,,,-99.99,,2013-08-04 14:06:00,
2013-08-04 09:12:00,83.8,72.5,30.03,SSW,203,9.2,12.5,69,0.00,,,-99.99,,2013-08-04 14:12:00,
2013-08-04 09:18:00,84.1,71.9,30.03,SSW,203,6.0,13.0,67,0.00,,,-99.99,,2013-08-04 14:18:00,
2013-08-04 09:24:00,84.4,72.2,30.03,WSW,248,3.7,20.0,67,0.00,,,-99.99,,2013-08-04 14:24:00,
2013-08-04 09:30:00,84.8,72.1,30.03,SSW,203,10.7,15.6,66,0.00,,,-99.99,,2013-08-04 14:30:00,
2013-08-04 09:36:00,85.0,72.8,30.03,South,180,12.8,17.8,67,0.00,,,-99.99,,2013-08-04 14:36:00,
2013-08-04 09:41:00,84.9,72.3,30.03,SW,225,13.2,16.0,66,0.00,,,-99.99,,2013-08-04 14:41:00,
2013-08-04 09:48:00,84.9,71.8,30.03,SSW,203,9.0,11.5,65,0.00,,,-99.99,,2013-08-04 14:48:00,
2013-08-04 09:53:00,85.0,71.9,30.03,SSW,203,6.4,12.2,65,0.00,,,-99.99,,2013-08-04 14:53:00,
2013-08-04 10:00:00,85.4,72.3,30.03,SSW,203,6.7,13.4,65,0.00,,,-99.99,,2013-08-04 15:00:00,
2013-08-04 10:06:00,85.8,71.8,30.03,SSW,203,8.8,19.8,63,0.00,,,-99.99,,2013-08-04 15:06:00,
2013-08-04 10:12:00,86.0,71.9,30.03,WSW,248,10.2,12.1,63,0.00,,,-99.99,,2013-08-04 15:12:00,
2013-08-04 10:17:00,86.1,72.9,30.03,SW,225,5.7,8.5,65,0.00,,,-99.99,,2013-08-04 15:17:00,
2013-08-04 10:24:00,86.2,72.1,30.03,South,180,5.3,10.8,63,0.00,,,-99.99,,2013-08-04 15:24:00,
2013-08-04 10:30:00,86.3,71.3,30.03,WNW,293,6.0,8.7,61,0.00,,,-99.99,,2013-08-04 15:30:00,
2013-08-04 10:35:00,86.7,72.2,30.03,WSW,248,8.9,11.3,62,0.00,,,-99.99,,2013-08-04 15:35:00,
2013-08-04 10:42:00,87.1,71.5,30.03,SSW,203,5.0,10.2,60,0.00,,,-99.99,,2013-08-04 15:42:00,
2013-08-04 10:48:00,87.3,73.2,30.03,SW,225,4.7,11.6,63,0.00,,,-99.99,,2013-08-04 15:48:00,
2013-08-04 10:54:00,87.6,72.0,30.03,SW,225,8.3,8.6,60,0.00,,,-99.99,,2013-08-04 15:54:00,
2013-08-04 11:00:00,88.0,71.4,30.03,SSW,203,9.6,9.6,58,0.00,,,-99.99,,2013-08-04 16:00:00,
2013-08-04 11:06:00,88.1,71.0,30.03,South,180,6.6,14.2,57,0.00,,,-99.99,,2013-08-04 16:06:00,
2013-08-04 11:12:00,88.4,71.8,30.02,SW,225,5.5,9.1,58,0.00,,,-99.99,,2013-08-04 16:12:00,
2013-08-04 11:18:00,88.6,72.9,30.02,WSW,248,3.8,10.4,60,0.00,,,-99.99,,2013-08-04 16:18:00,
2013-08-04 11:24:00,89.0,72.3,30.02,SW,225,8.0,12.9,58,0.00,,,-99.99,,2013-08-04 16:24:00,
2013-08-04 11:30:00,89.1,70.8,30.02,South,180,9.4,13.7,55,0.00,,,-99.99,,2013-08-04 16:30:00,
2013-08-04 11:36:00,89.4,71.7,30.02,ESE,113,1.7,9.4,56,0.00,,,-99.99,,2013-08-04 16:36:00,
2013-08-04 11:42:00,90.0,71.1,30.02,SSW,203,7.0,12.9,54,0.00,,,-99.99,,2013-08-04 16:42:00,
2013-08-04 11:48:00,90.8,71.9,30.02,South,180,6.6,11.0,54,0.00,,,-99.99,,2013-08-04 16:48:00,
2013-08-04 11:54:00,91.2,70.6,30.01,South,180,3.3,9.7,51,0.00,,,-99.99,,2013-08-04 16:54:00,
2013-08-04 12:00:00,91.7,69.8,30.01,South,180,9.5,16.7,49,0.00,,,-99.99,,2013-08-04 17:00:00,
2013-08-04 12:06:00,92.2,72.6,30.01,South,180,9.0,13.2,53,0.00,,,-99.99,,2013-08-04 17:06:00,
2013-08-04 12:12:00,92.3,73.2,30.00,West,270,7.5,7.8,54,0.00,,,-99.99,,2013-08-04 17:12:00,
2013-08-04 12:18:00,91.8,68.7,30.01,SSW,203,2.7,13.0,47,0.00,,,-99.99,,2013-08-04 17:18:00,
2013-08-04 12:24:00,92.3,68.6,30.00,SSW,203,4.0,14.6,46,0.00,,,-99.99,,2013-08-04 17:24:00,
2013-08-04 12:30:00,92.9,72.1,30.00,SW,225,8.8,13.5,51,0.00,,,-99.99,,2013-08-04 17:30:00,
2013-08-04 12:35:00,93.6,70.3,30.00,South,180,6.7,6.7,47,0.00,,,-99.99,,2013-08-04 17:35:00,
2013-08-04 12:42:00,93.6,71.0,30.00,South,180,6.1,14.0,48,0.00,,,-99.99,,2013-08-04 17:42:00,
2013-08-04 12:48:00,93.7,71.7,30.00,WSW,248,2.8,4.2,49,0.00,,,-99.99,,2013-08-04 17:48:00,
2013-08-04 12:54:00,94.6,68.6,30.00,SE,135,6.4,8.6,43,0.00,,,-99.99,,2013-08-04 17:54:00,
2013-08-04 13:00:00,94.8,68.8,29.99,SE,135,3.5,9.5,43,0.00,,,-99.99,,2013-08-04 18:00:00,
2013-08-04 13:05:00,95.3,71.9,29.99,SSW,203,9.0,13.3,47,0.00,,,-99.99,,2013-08-04 18:05:00,
2013-08-04 13:12:00,95.4,70.0,29.99,SSW,203,2.9,9.8,44,0.00,,,-99.99,,2013-08-04 18:12:00,
2013-08-04 13:18:00,94.7,68.7,29.99,SE,135,6.9,14.7,43,0.00,,,-99.99,,2013-08-04 18:18:00,
2013-08-04 13:24:00,94.6,68.7,29.98,South,180,7.6,12.1,43,0.00,,,-99.99,,2013-08-04 18:24:00,
2013-08-04 13:30:00,95.5,70.1,29.98,South,180,3.4,11.2,44,0.00,,,-99.99,,2013-08-04 18:30:00,
2013-08-04 13:36:00,95.4,69.4,29.98,WSW,248,3.4,5.9,43,0.00,,,-99.99,,2013-08-04 18:36:00,
2013-08-04 13:42:00,94.9,68.2,29.98,SSE,158,4.6,7.5,42,0.00,,,-99.99,,2013-08-04 18:42:00,
2013-08-04 13:47:00,95.5,68.1,29.98,SE,135,4.7,6.5,41,0.00,,,-99.99,,2013-08-04 18:47:00,
2013-08-04 13:54:00,96.5,71.0,29.98,SW,225,7.2,10.6,44,0.00,,,-99.99,,2013-08-04 18:54:00,
2013-08-04 14:00:00,97.5,71.2,29.97,SE,135,4.0,11.7,43,0.00,,,-99.99,,2013-08-04 19:00:00,
2013-08-04 14:06:00,97.6,68.5,29.97,East,90,2.4,6.7,39,0.00,,,-99.99,,2013-08-04 19:06:00,
2013-08-04 14:12:00,97.5,69.9,29.97,WNW,293,1.6,8.6,41,0.00,,,-99.99,,2013-08-04 19:12:00,
2013-08-04 14:18:00,98.0,69.6,29.97,SW,225,6.4,11.1,40,0.00,,,-99.99,,2013-08-04 19:18:00,
2013-08-04 14:24:00,97.5,69.1,29.96,South,180,7.1,7.9,40,0.00,,,-99.99,,2013-08-04 19:24:00,
2013-08-04 14:30:00,97.1,69.5,29.96,West,270,1.8,4.4,41,0.00,,,-99.99,,2013-08-04 19:30:00,
2013-08-04 14:36:00,96.7,68.4,29.96,SSW,203,7.0,11.5,40,0.00,,,-99.99,,2013-08-04 19:36:00,
2013-08-04 14:42:00,97.6,67.7,29.96,South,180,9.6,9.9,38,0.00,,,-99.99,,2013-08-04 19:42:00,
2013-08-04 14:48:00,98.2,67.5,29.96,ESE,113,2.1,4.5,37,0.00,,,-99.99,,2013-08-04 19:48:00,
2013-08-04 14:54:00,98.5,68.5,29.96,SSE,158,3.1,9.2,38,0.00,,,-99.99,,2013-08-04 19:54:00,
2013-08-04 15:00:00,99.1,67.4,29.95,South,180,5.7,11.1,36,0.00,,,-99.99,,2013-08-04 20:00:00,
2013-08-04 15:06:00,99.3,68.4,29.95,South,180,6.8,16.2,37,0.00,,,-99.99,,2013-08-04 20:06:00,
2013-08-04 15:12:00,98.6,69.4,29.95,SW,225,7.0,10.8,39,0.00,,,-99.99,,2013-08-04 20:12:00,
2013-08-04 15:17:00,98.6,65.4,29.94,ESE,113,6.9,15.6,34,0.00,,,-99.99,,2013-08-04 20:17:00,
2013-08-04 15:23:00,98.4,63.4,29.94,SSE,158,1.0,10.7,32,0.00,,,-99.99,,2013-08-04 20:23:00,
2013-08-04 15:30:00,99.0,66.5,29.94,South,180,3.1,8.1,35,0.00,,,-99.99,,2013-08-04 20:30:00,
2013-08-04 15:36:00,99.3,70.0,29.94,WSW,248,5.5,8.2,39,0.00,,,-99.99,,2013-08-04 20:36:00,
2013-08-04 15:42:00,98.1,66.6,29.93,SW,225,7.3,12.9,36,0.00,,,-99.99,,2013-08-04 20:42:00,
2013-08-04 15:47:00,97.4,66.0,29.93,SSW,203,6.7,11.8,36,0.00,,,-99.99,,2013-08-04 20:47:00,
2013-08-04 15:53:00,97.5,65.2,29.93,South,180,9.2,11.0,35,0.00,,,-99.99,,2013-08-04 20:53:00,
2013-08-04 16:00:00,97.9,65.6,29.93,WSW,248,6.1,9.7,35,0.00,,,-99.99,,2013-08-04 21:00:00,
2013-08-04 16:05:00,98.4,66.0,29.93,SSE,158,2.9,8.0,35,0.00,,,-99.99,,2013-08-04 21:05:00,
2013-08-04 16:11:00,99.4,65.2,29.93,SSW,203,6.1,10.4,33,0.00,,,-99.99,,2013-08-04 21:11:00,
2013-08-04 16:18:00,99.9,65.6,29.92,SE,135,5.5,9.7,33,0.00,,,-99.99,,2013-08-04 21:18:00,
2013-08-04 16:24:00,101.0,66.6,29.93,South,180,8.9,13.0,33,0.00,,,-99.99,,2013-08-04 21:24:00,
2013-08-04 16:30:00,101.1,65.8,29.93,SE,135,5.4,9.9,32,0.00,,,-99.99,,2013-08-04 21:30:00,
2013-08-04 16:36:00,101.7,65.4,29.92,SE,135,5.0,9.7,31,0.00,,,-99.99,,2013-08-04 21:36:00,
2013-08-04 16:42:00,102.1,65.8,29.92,ESE,113,1.0,9.6,31,0.00,,,-99.99,,2013-08-04 21:42:00,
2013-08-04 16:48:00,103.2,66.7,29.92,SSE,158,1.8,6.4,31,0.00,,,-99.99,,2013-08-04 21:48:00,
2013-08-04 16:54:00,103.6,68.9,29.91,SW,225,10.6,10.8,33,0.00,,,-99.99,,2013-08-04 21:54:00,
2013-08-04 17:00:00,102.9,68.2,29.91,South,180,1.7,5.9,33,0.00,,,-99.99,,2013-08-04 22:00:00,
2013-08-04 17:06:00,101.2,66.8,29.91,South,180,5.4,9.9,33,0.00,,,-99.99,,2013-08-04 22:06:00,
2013-08-04 17:12:00,99.3,66.0,29.91,SW,225,7.3,9.6,34,0.00,,,-99.99,,2013-08-04 22:12:00,
2013-08-04 17:18:00,99.2,65.9,29.90,South,180,6.7,10.2,34,0.00,,,-99.99,,2013-08-04 22:18:00,
2013-08-04 17:20:00,99.1,64.1,29.91,SE,135,6.8,11.6,32,0.00,,,-99.99,,2013-08-04 22:20:00,
2013-08-04 17:26:00,99.8,63.7,29.91,ESE,113,3.7,13.4,31,0.00,,,-99.99,,2013-08-04 22:26:00,
2013-08-04 17:32:00,100.8,63.7,29.91,SE,135,6.4,14.0,30,0.00,,,-99.99,,2013-08-04 22:32:00,
2013-08-04 17:38:00,102.6,64.3,29.90,SE,135,2.3,8.4,29,0.00,,,-99.99,,2013-08-04 22:38:00,
2013-08-04 17:44:00,102.8,66.4,29.90,ESE,113,1.2,4.2,31,0.00,,,-99.99,,2013-08-04 22:44:00,
2013-08-04 17:50:00,103.0,65.6,29.90,ESE,113,1.3,5.5,30,0.00,,,-99.99,,2013-08-04 22:50:00,
2013-08-04 17:56:00,102.5,66.1,29.90,SW,225,4.8,7.3,31,0.00,,,-99.99,,2013-08-04 22:56:00,
2013-08-04 18:02:00,102.6,65.2,29.90,SSE,158,2.2,10.1,30,0.00,,,-99.99,,2013-08-04 23:02:00,
2013-08-04 18:08:00,103.0,65.6,29.90,SSE,158,5.5,8.4,30,0.00,,,-99.99,,2013-08-04 23:08:00,
2013-08-04 18:14:00,103.1,65.7,29.89,SE,135,7.7,10.0,30,0.00,,,-99.99,,2013-08-04 23:14:00,
2013-08-04 18:20:00,103.4,66.9,29.90,ESE,113,4.8,13.8,31,0.00,,,-99.99,,2013-08-04 23:20:00,
2013-08-04 18:26:00,102.9,66.4,29.90,ESE,113,4.4,13.2,31,0.00,,,-99.99,,2013-08-04 23:26:00,
2013-08-04 18:32:00,102.5,65.1,29.89,SE,135,4.1,9.3,30,0.00,,,-99.99,,2013-08-04 23:32:00,
2013-08-04 18:38:00,101.8,65.5,29.89,South,180,4.5,8.4,31,0.00,,,-99.99,,2013-08-04 23:38:00,
2013-08-04 18:44:00,101.9,66.5,29.89,SE,135,4.5,10.4,32,0.00,,,-99.99,,2013-08-04 23:44:00,
2013-08-04 18:50:00,101.5,66.2,29.89,SE,135,1.2,5.2,32,0.00,,,-99.99,,2013-08-04 23:50:00,
2013-08-04 18:56:00,101.0,66.6,29.89,ESE,113,4.0,11.1,33,0.00,,,-99.99,,2013-08-04 23:56:00,
2013-08-04 19:02:00,100.6,66.3,29.90,ESE,113,4.4,11.4,33,0.00,,,-99.99,,2013-08-05 00:02:00,
2013-08-04 19:08:00,100.9,66.5,29.89,ESE,113,4.8,6.6,33,0.00,,,-99.99,,2013-08-05 00:08:00,
2013-08-04 19:14:00,100.5,66.2,29.90,ESE,113,4.7,6.5,33,0.00,,,-99.99,,2013-08-05 00:14:00,
2013-08-04 19:20:00,100.5,67.0,29.90,South,180,2.8,7.8,34,0.00,,,-99.99,,2013-08-05 00:20:00,
2013-08-04 19:26:00,100.3,66.9,29.90,SSE,158,2.7,5.1,34,0.00,,,-99.99,,2013-08-05 00:26:00,
2013-08-04 19:32:00,100.0,67.4,29.90,SE,135,2.4,8.3,35,0.00,,,-99.99,,2013-08-05 00:32:00,
2013-08-04 19:38:00,99.3,65.9,29.90,SSE,158,10.3,10.7,34,0.00,,,-99.99,,2013-08-05 00:38:00,
2013-08-04 19:44:00,98.8,67.2,29.91,SSW,203,7.5,10.4,36,0.00,,,-99.99,,2013-08-05 00:44:00,
2013-08-04 19:50:00,98.3,67.5,29.91,South,180,4.5,8.8,37,0.00,,,-99.99,,2013-08-05 00:50:00,
2013-08-04 19:56:00,97.6,69.2,29.91,SE,135,5.1,8.8,40,0.00,,,-99.99,,2013-08-05 00:56:00,
2013-08-04 20:02:00,96.7,69.8,29.92,ESE,113,4.6,10.6,42,0.00,,,-99.99,,2013-08-05 01:02:00,
2013-08-04 20:08:00,96.1,69.3,29.91,SE,135,6.2,9.8,42,0.00,,,-99.99,,2013-08-05 01:08:00,
2013-08-04 20:14:00,95.5,69.4,29.91,ESE,113,6.5,13.4,43,0.00,,,-99.99,,2013-08-05 01:14:00,
2013-08-04 20:20:00,94.8,69.5,29.92,SE,135,1.7,10.2,44,0.00,,,-99.99,,2013-08-05 01:20:00,
2013-08-04 20:26:00,94.3,69.0,29.92,ESE,113,6.3,7.0,44,0.00,,,-99.99,,2013-08-05 01:26:00,
2013-08-04 20:32:00,93.8,69.2,29.92,ESE,113,2.9,8.7,45,0.00,,,-99.99,,2013-08-05 01:32:00,
2013-08-04 20:38:00,93.4,69.5,29.92,ESE,113,4.2,7.6,46,0.00,,,-99.99,,2013-08-05 01:38:00,
2013-08-04 20:44:00,92.9,69.1,29.92,ESE,113,3.2,8.9,46,0.00,,,-99.99,,2013-08-05 01:44:00,
2013-08-04 20:50:00,92.4,69.2,29.92,SE,135,5.9,8.1,47,0.00,,,-99.99,,2013-08-05 01:50:00,
2013-08-04 20:56:00,91.9,68.8,29.93,ESE,113,5.4,8.1,47,0.00,,,-99.99,,2013-08-05 01:56:00,
2013-08-04 21:02:00,91.5,69.0,29.92,ESE,113,2.2,7.6,48,0.00,,,-99.99,,2013-08-05 02:02:00,
2013-08-04 21:08:00,91.1,68.7,29.93,ESE,113,3.0,6.7,48,0.00,,,-99.99,,2013-08-05 02:08:00,
2013-08-04 21:14:00,90.8,69.0,29.93,ESE,113,2.9,5.5,49,0.00,,,-99.99,,2013-08-05 02:14:00,
2013-08-04 21:20:00,90.5,68.8,29.93,SE,135,5.0,9.7,49,0.00,,,-99.99,,2013-08-05 02:20:00,
2013-08-04 21:26:00,90.3,68.5,29.93,SE,135,5.9,9.4,49,0.00,,,-99.99,,2013-08-05 02:26:00,
2013-08-04 21:32:00,90.0,68.9,29.93,SSE,158,2.6,8.3,50,0.00,,,-99.99,,2013-08-05 02:32:00,
2013-08-04 21:38:00,89.8,69.3,29.93,ESE,113,2.1,9.2,51,0.00,,,-99.99,,2013-08-05 02:38:00,
2013-08-04 21:44:00,89.6,69.1,29.93,ESE,113,5.1,8.8,51,0.00,,,-99.99,,2013-08-05 02:44:00,
2013-08-04 21:50:00,89.5,68.9,29.93,SE,135,3.4,6.6,51,0.00,,,-99.99,,2013-08-05 02:50:00,
2013-08-04 21:56:00,89.3,69.4,29.94,SE,135,2.3,7.4,52,0.00,,,-99.99,,2013-08-05 02:56:00,
2013-08-04 22:02:00,89.1,69.2,29.94,SE,135,5.4,6.8,52,0.00,,,-99.99,,2013-08-05 03:02:00,
2013-08-04 22:08:00,89.0,69.6,29.94,SE,135,3.9,9.8,53,0.00,,,-99.99,,2013-08-05 03:08:00,
2013-08-04 22:14:00,88.8,69.4,29.94,ESE,113,4.2,8.5,53,0.00,,,-99.99,,2013-08-05 03:14:00,
2013-08-04 22:20:00,88.6,69.8,29.95,SE,135,2.7,4.9,54,0.00,,,-99.99,,2013-08-05 03:20:00,
2013-08-04 22:26:00,88.4,70.2,29.95,SE,135,1.5,4.5,55,0.00,,,-99.99,,2013-08-05 03:26:00,
2013-08-04 22:32:00,88.1,69.9,29.95,SE,135,3.8,5.5,55,0.00,,,-99.99,,2013-08-05 03:32:00,
2013-08-04 22:38:00,87.9,69.7,29.95,SE,135,4.0,6.2,55,0.00,,,-99.99,,2013-08-05 03:38:00,
2013-08-04 22:44:00,87.7,69.5,29.95,SE,135,6.5,6.7,55,0.00,,,-99.99,,2013-08-05 03:44:00,
2013-08-04 22:50:00,87.5,69.9,29.95,ESE,113,3.8,9.0,56,0.00,,,-99.99,,2013-08-05 03:50:00,
2013-08-04 22:56:00,87.4,69.8,29.95,SE,135,2.2,6.0,56,0.00,,,-99.99,,2013-08-05 03:56:00,
2013-08-04 23:02:00,87.3,69.7,29.95,ESE,113,2.1,8.3,56,0.00,,,-99.99,,2013-08-05 04:02:00,
2013-08-04 23:04:00,87.3,69.7,29.96,ESE,113,5.2,5.7,56,0.00,,,-99.99,,2013-08-05 04:04:00,
2013-08-04 23:08:00,87.3,69.7,29.96,SE,135,2.5,8.9,56,0.00,,,-99.99,,2013-08-05 04:08:00,
2013-08-04 23:14:00,87.3,70.2,29.96,SE,135,1.6,5.0,57,0.00,,,-99.99,,2013-08-05 04:14:00,
2013-08-04 23:18:00,87.3,70.2,29.96,SE,135,3.7,6.7,57,0.00,,,-99.99,,2013-08-05 04:18:00,
2013-08-04 23:24:00,87.3,70.2,29.95,SE,135,3.5,6.6,57,0.00,,,-99.99,,2013-08-05 04:24:00,
2013-08-04 23:30:00,87.2,70.1,29.96,ESE,113,3.6,6.2,57,0.00,,,-99.99,,2013-08-05 04:30:00,
2013-08-04 23:36:00,87.0,70.5,29.95,SE,135,2.9,4.6,58,0.00,,,-99.99,,2013-08-05 04:36:00,
2013-08-04 23:42:00,86.8,70.3,29.96,ESE,113,1.5,5.1,58,0.00,,,-99.99,,2013-08-05 04:42:00,
2013-08-04 23:48:00,86.7,70.1,29.95,ESE,113,3.0,7.8,58,0.00,,,-99.99,,2013-08-05 04:48:00,
2013-08-04 23:54:00,86.5,70.5,29.95,ESE,113,3.8,5.0,59,0.00,,,-99.99,,2013-08-05 04:54:00,